THY75 LOWW-CYVR

Flight info

Callsign THY75
Flight time N/A
Altitude 30000
Route LANUX DCT HDO M748 BUMIL DCT ATTUS P992 BAVTA P619 MITSI DCT GUNPA/M084F320 DCT 65N008W 70N026W DCT 7250N DCT INGUM/N0489F340 DCT 69N086W DCT 6599N DCT 60N08 DCT YZU DCT GABIN DCT BOOTH CANUC6
Aircraft B77W/H-SDE1E2E3FGHIJ2J3J4J5M1RWXY/LB1D1

Departure

Time 2026-04-26 07:43
Airport Vienna International Airport (LOWW)

Arrival

Time N/A
Airport Vancouver International Airport (CYVR)
Time Latitude Longitude Altitude Speed Heading
2026-04-26 06:30 48.11888 16.55689 615 ft 0 kts 26°
2026-04-26 07:27 48.11889 16.55689 615 ft 0 kts 26°
2026-04-26 07:28 48.11888 16.55689 615 ft 0 kts 26°
2026-04-26 07:28 48.11885 16.55687 615 ft 0 kts 26°
2026-04-26 07:28 48.11875 16.55680 615 ft 2 kts 26°
2026-04-26 07:28 48.11854 16.55662 615 ft 3 kts 39°
2026-04-26 07:29 48.11837 16.55635 615 ft 3 kts 59°
2026-04-26 07:29 48.11832 16.55622 615 ft 0 kts 84°
2026-04-26 07:32 48.11832 16.55623 615 ft 0 kts 85°
2026-04-26 07:32 48.11832 16.55626 615 ft 0 kts 95°
2026-04-26 07:32 48.11825 16.55655 615 ft 1 kts 111°
2026-04-26 07:32 48.11814 16.55696 615 ft 5 kts 112°
2026-04-26 07:33 48.11804 16.55733 615 ft 4 kts 114°
2026-04-26 07:33 48.11771 16.55778 615 ft 9 kts 167°
2026-04-26 07:33 48.11681 16.55850 615 ft 17 kts 123°
2026-04-26 07:33 48.11627 16.55993 615 ft 15 kts 117°
2026-04-26 07:34 48.11562 16.56187 615 ft 19 kts 116°
2026-04-26 07:34 48.11518 16.56329 615 ft 16 kts 114°
2026-04-26 07:34 48.11466 16.56498 615 ft 17 kts 116°
2026-04-26 07:34 48.11428 16.56615 615 ft 13 kts 116°
2026-04-26 07:35 48.11382 16.56763 615 ft 18 kts 116°
2026-04-26 07:35 48.11329 16.56917 615 ft 13 kts 118°
2026-04-26 07:35 48.11290 16.57024 615 ft 11 kts 120°
2026-04-26 07:35 48.11250 16.57148 615 ft 15 kts 115°
2026-04-26 07:36 48.11203 16.57294 615 ft 17 kts 116°
2026-04-26 07:36 48.11158 16.57434 615 ft 15 kts 116°
2026-04-26 07:36 48.11120 16.57548 615 ft 6 kts 117°
2026-04-26 07:36 48.11089 16.57645 615 ft 9 kts 116°
2026-04-26 07:37 48.11055 16.57745 615 ft 12 kts 121°
2026-04-26 07:37 48.10980 16.57822 615 ft 11 kts 159°
2026-04-26 07:37 48.10871 16.57868 615 ft 20 kts 165°
2026-04-26 07:37 48.10734 16.57925 615 ft 20 kts 165°
2026-04-26 07:38 48.10591 16.57988 615 ft 21 kts 164°
2026-04-26 07:38 48.10469 16.58040 615 ft 18 kts 165°
2026-04-26 07:38 48.10337 16.58093 615 ft 18 kts 164°
2026-04-26 07:38 48.10228 16.58137 615 ft 19 kts 165°
2026-04-26 07:39 48.10076 16.58201 615 ft 25 kts 164°
2026-04-26 07:39 48.09906 16.58276 615 ft 25 kts 163°
2026-04-26 07:39 48.09753 16.58342 615 ft 19 kts 165°
2026-04-26 07:39 48.09604 16.58403 615 ft 25 kts 164°
2026-04-26 07:40 48.09436 16.58472 615 ft 18 kts 165°
2026-04-26 07:40 48.09337 16.58515 615 ft 15 kts 164°
2026-04-26 07:40 48.09214 16.58568 615 ft 20 kts 164°
2026-04-26 07:40 48.09085 16.58621 615 ft 17 kts 164°
2026-04-26 07:41 48.08966 16.58671 615 ft 19 kts 163°
2026-04-26 07:41 48.08842 16.58747 615 ft 20 kts 142°
2026-04-26 07:41 48.08796 16.58921 615 ft 12 kts 82°
2026-04-26 07:41 48.08826 16.59027 615 ft 11 kts 53°
2026-04-26 07:42 48.08869 16.59078 615 ft 9 kts 32°
2026-04-26 07:42 48.08920 16.59097 615 ft 3 kts 352°
2026-04-26 07:42 48.09130 16.59023 615 ft 64 kts 345°
2026-04-26 07:42 48.09773 16.58749 615 ft 128 kts 344°
2026-04-26 07:43 48.10839 16.58296 642 ft 183 kts 343°
2026-04-26 07:43 48.12086 16.57725 1311 ft 192 kts 345°
2026-04-26 07:43 48.13343 16.57371 2249 ft 185 kts
2026-04-26 07:43 48.14656 16.57772 2518 ft 205 kts 19°
2026-04-26 07:44 48.15968 16.58921 2782 ft 226 kts 28°
2026-04-26 07:44 48.17306 16.60282 3156 ft 240 kts 29°
2026-04-26 07:44 48.18706 16.61727 3739 ft 245 kts 29°
2026-04-26 07:44 48.20142 16.63150 4239 ft 252 kts 24°
2026-04-26 07:45 48.21676 16.64488 4886 ft 255 kts 24°
2026-04-26 07:45 48.23295 16.65444 5420 ft 251 kts
2026-04-26 07:45 48.25011 16.65368 6040 ft 244 kts 341°
2026-04-26 07:45 48.26539 16.64419 6712 ft 241 kts 330°
2026-04-26 07:46 48.27995 16.63235 7371 ft 241 kts 328°
2026-04-26 07:46 48.29451 16.61978 7984 ft 243 kts 328°
2026-04-26 07:46 48.30911 16.60691 8597 ft 245 kts 328°
2026-04-26 07:46 48.32395 16.59378 9191 ft 247 kts 328°
2026-04-26 07:47 48.33870 16.58073 9800 ft 248 kts 327°
2026-04-26 07:47 48.35353 16.56759 10336 ft 253 kts 327°
2026-04-26 07:47 48.36916 16.55372 10568 ft 269 kts 328°
2026-04-26 07:47 48.38571 16.53903 10772 ft 285 kts 328°
2026-04-26 07:48 48.40319 16.52352 11027 ft 301 kts 328°
2026-04-26 07:48 48.42168 16.50711 11285 ft 316 kts 328°
2026-04-26 07:48 48.44074 16.48875 11598 ft 330 kts 322°
2026-04-26 07:48 48.45794 16.46538 12148 ft 336 kts 313°
2026-04-26 07:49 48.47223 16.43767 12811 ft 340 kts 305°
2026-04-26 07:49 48.48361 16.40647 13432 ft 345 kts 300°
2026-04-26 07:49 48.49446 16.37368 14080 ft 349 kts 300°
2026-04-26 07:50 48.51615 16.30753 15261 ft 357 kts 299°
2026-04-26 07:50 48.52721 16.27373 15864 ft 361 kts 299°
2026-04-26 07:50 48.53830 16.23978 16499 ft 363 kts 300°
2026-04-26 07:50 48.54938 16.20583 17100 ft 366 kts 299°
2026-04-26 07:51 48.56071 16.17105 17680 ft 369 kts 300°
2026-04-26 07:51 48.57302 16.13741 18186 ft 371 kts 306°
2026-04-26 07:51 48.58884 16.10658 18667 ft 373 kts 314°
2026-04-26 07:51 48.60659 16.07763 19219 ft 376 kts 315°
2026-04-26 07:52 48.62443 16.04874 19776 ft 379 kts 314°
2026-04-26 07:52 48.64243 16.01952 20288 ft 382 kts 314°
2026-04-26 07:52 48.66045 15.99018 20732 ft 387 kts 314°
2026-04-26 07:52 48.67873 15.96035 21272 ft 389 kts 314°
2026-04-26 07:53 48.69730 15.93000 21834 ft 391 kts 314°
2026-04-26 07:53 48.71583 15.89967 22297 ft 394 kts 314°
2026-04-26 07:53 48.73431 15.86937 22709 ft 399 kts 314°
2026-04-26 07:53 48.75319 15.83838 23134 ft 402 kts 314°
2026-04-26 07:54 48.77226 15.80706 23601 ft 405 kts 314°
2026-04-26 07:54 48.79148 15.77542 24031 ft 408 kts 314°
2026-04-26 07:54 48.81065 15.74383 24438 ft 411 kts 314°
2026-04-26 07:54 48.82998 15.71194 24792 ft 415 kts 314°
2026-04-26 07:55 48.84963 15.67949 25197 ft 418 kts 314°
2026-04-26 07:55 48.86995 15.64771 25634 ft 419 kts 319°
2026-04-26 07:55 48.89299 15.62022 26008 ft 422 kts 327°
2026-04-26 07:55 48.91825 15.59823 26321 ft 426 kts 334°
2026-04-26 07:56 48.94575 15.58100 26719 ft 429 kts 338°
2026-04-26 07:56 48.97378 15.56483 27149 ft 431 kts 338°
2026-04-26 07:56 49.00188 15.54858 27493 ft 434 kts 338°
2026-04-26 07:56 49.03025 15.53209 27853 ft 437 kts 338°
2026-04-26 07:57 49.05884 15.51539 28225 ft 439 kts 338°